User: anonymous   Login
Location: Saddleback Butte
(34.6776°N, 117.8050°W)
Time: 17:03:54
(UTC-08:00)
Language:

Cosmos 1862 Rocket - Orbit

View from above orbital plane
View from above orbital plane
View from above satellite
View from above satellite

Ground track
Ground track

The orbit data is extracted from the following two-line orbital elements,

1 18153U 87055B   15025.55881880  .00000357  00000-0  40903-4 0  5619
2 18153 082.4992 204.5261 0023099 082.5065 337.2974 14.82837672488882
Epoch (UTC): 25 January 2015 13:24:41
Eccentricity: 0.0023099
inclination: 82.4992°
perigee height: 604 km
apogee height: 636 km
right ascension of ascending node: 204.5261°
argument of perigee: 82.5065°
revolutions per day: 14.82837672
mean anomaly at epoch: 337.2974°
orbit number at epoch: 48888

The dashed part of the orbit path shows where the satellite is in the earth's shadow,  

DLR